Flag for U.S.A. Weather past 2 weeks in Corvallis, Oregon, U.S.A.

Now
77 °F

Sunny.


Feels Like: 78 °F
Forecast: 49 / 79 °F
Wind: 14 mph from Northwest

Location: Corvallis Municipal

Current Time: Aug 20, 2014 at 6:44:04 PM

Latest Report: Aug 20, 2014 at 6:15 PM


Visibility: 10 mi

Pressure: 29.96 "Hg

Humidity: 42%

Dew point: 52 °F

Location of CorvallisLocation

Historic Weather in Corvallis — Graph

°F

Corvallis temperature yesterday

Maximum temperature yesterday: 84 °F (at 2:35 PM)
Minimum temperature yesterday: 59 °F (at 6:35 AM)
Average temperature yesterday: 70 °F

Past Weeks' High & Low Weather Summary

 TemperatureHumidityPressure
High99 °F (Aug 11, 3:55 PM)94% (Aug 6, 3:35 AM)30.18 "Hg (Aug 6, 3:35 AM)
Low52 °F (Aug 8, 6:55 AM)23% (Aug 10, 5:15 PM)29.80 "Hg (Aug 18, 6:15 PM)
Average70 °F63%30.00 "Hg
* Reported Aug 5 5:15 PM — Aug 20 5:35 PM, Corvallis, Weather by CustomWeather, © 2014

Note: Actual official high and low records may vary slightly from our data, if they occured in-between our weather recording intervals... More about our weather records

Advertising

Corvallis weather history for previous 24 hours

 ConditionsComfort  
Time TempWeatherWind HumidityBarometerVisibility
5:35 PM
Aug 20
79 °FSunny.12 mph39%29.96 "Hg10 mi
4:55 PM81 °FSunny.8 mph34%29.96 "Hg10 mi
4:35 PM79 °FSunny.9 mph37%29.96 "Hg10 mi
4:15 PM81 °FSunny.8 mph32%29.97 "Hg10 mi
3:55 PM81 °FSunny.5 mph30%29.97 "Hg10 mi
3:35 PM81 °FSunny.6 mph32%29.97 "Hg10 mi
3:15 PM79 °FSunny.8 mph34%29.98 "Hg9 mi
2:55 PM77 °FSunny.6 mph36%29.99 "Hg10 mi
2:35 PM77 °FSunny.8 mph39%29.99 "Hg10 mi
1:55 PM75 °FScattered clouds.9 mph44%30.00 "Hg10 mi
1:35 PM75 °FPartly sunny.No wind47%30.00 "Hg10 mi
1:15 PM72 °FBroken clouds.No wind53%30.00 "Hg10 mi
12:55 PM72 °FMostly cloudy.No wind57%30.00 "Hg10 mi
12:35 PM70 °FMostly cloudy.No wind60%30.00 "Hg10 mi
12:15 PM72 °FMostly cloudy.7 mph57%30.00 "Hg10 mi
11:55 AM70 °FOvercast.3 mph60%30.00 "Hg10 mi
11:35 AM70 °FMore clouds than sun.No wind60%30.00 "Hg10 mi
10:55 AM70 °FOvercast.No wind60%30.01 "Hg10 mi
10:35 AM68 °FOvercast.No wind64%30.00 "Hg10 mi
10:15 AM70 °FOvercast.3 mph57%30.00 "Hg10 mi
9:55 AM66 °FMore clouds than sun.No wind64%30.00 "Hg10 mi
9:35 AM64 °FMostly cloudy.6 mph68%30.00 "Hg5 mi
9:15 AM64 °FMostly cloudy.7 mph68%30.00 "Hg10 mi
8:55 AM63 °FMostly cloudy.3 mph77%30.00 "Hg7 mi
8:35 AM63 °FOvercast.5 mph77%29.99 "Hg10 mi
8:15 AM63 °FOvercast.3 mph77%29.99 "Hg10 mi
7:55 AM63 °FOvercast.5 mph77%29.98 "Hg10 mi
7:35 AM63 °FOvercast.7 mph77%29.98 "Hg10 mi
7:15 AM63 °FMostly cloudy.3 mph77%29.97 "Hg10 mi
6:55 AM63 °FOvercast.6 mph77%29.97 "Hg10 mi
6:35 AM63 °FOvercast.5 mph77%29.96 "Hg10 mi
6:15 AM63 °FOvercast.No wind77%29.95 "Hg10 mi
5:55 AM63 °FOvercast.N/A77%29.94 "Hg10 mi
5:35 AM63 °FOvercast.3 mph77%29.94 "Hg10 mi
4:55 AM63 °FOvercast.8 mph77%29.94 "Hg10 mi
4:35 AM63 °FMostly cloudy.5 mph83%29.94 "Hg10 mi
4:15 AM63 °FMostly cloudy.10 mph77%29.94 "Hg10 mi
3:55 AM63 °FMostly cloudy.10 mph77%29.93 "Hg10 mi
3:35 AM63 °FOvercast.12 mph77%29.93 "Hg10 mi
3:15 AM63 °FOvercast.10 mph77%29.93 "Hg10 mi
2:55 AM63 °FOvercast.12 mph77%29.92 "Hg10 mi
2:35 AM63 °FOvercast.10 mph77%29.92 "Hg10 mi
2:15 AM63 °FOvercast.12 mph77%29.92 "Hg10 mi
1:55 AM63 °FPassing clouds.12 mph83%29.93 "Hg10 mi
1:35 AM61 °FPassing clouds.12 mph83%29.92 "Hg10 mi
1:15 AM61 °FClear.12 mph83%29.92 "Hg10 mi
12:55 AM63 °FClear.12 mph83%29.92 "Hg10 mi
12:35 AM63 °FClear.10 mph83%29.92 "Hg10 mi
12:15 AM63 °FClear.14 mph83%29.91 "Hg10 mi
11:55 PM
Aug 19
63 °FPassing clouds.14 mph83%29.91 "Hg10 mi
11:35 PM63 °FClear.16 mph83%29.91 "Hg10 mi
11:15 PM64 °FClear.13 mph78%29.90 "Hg10 mi
10:55 PM64 °FClear.10 mph78%29.90 "Hg10 mi
10:35 PM64 °FPassing clouds.10 mph78%29.90 "Hg10 mi
10:15 PM66 °FPassing clouds.10 mph73%29.89 "Hg10 mi
9:55 PM66 °FPassing clouds.9 mph73%29.89 "Hg10 mi
9:35 PM66 °FPassing clouds.10 mph73%29.89 "Hg10 mi
9:15 PM66 °FClear.9 mph73%29.89 "Hg10 mi
8:55 PM68 °FSunny.10 mph69%29.87 "Hg10 mi
8:35 PM70 °FSunny.14 mph64%29.87 "Hg10 mi
8:15 PM70 °FSunny.17 mph64%29.86 "Hg10 mi
7:55 PM72 °FSunny.16 mph61%29.85 "Hg10 mi
7:35 PM73 °FSunny.16 mph57%29.84 "Hg10 mi
7:15 PM75 °FSunny.20 mph54%29.84 "Hg10 mi
6:55 PM77 °FSunny.17 mph51%29.83 "Hg10 mi
6:35 PM79 °FSunny.20 mph48%29.83 "Hg10 mi
6:15 PM81 °FSunny.16 mph48%29.83 "Hg10 mi
Weather by CustomWeather, © 2014

See weather overviewHow to use our weather pages